�N����,����,�~����,�C��,���x,�C��,����,���ϕ���,�ő�u�ԕ���,�ő厞����,���˗�,�I�_���x,�n�����x,�ő啗���N��,DTYPE
"17/12/13","00:10",0.0,1.4,67.3,1012.8,294.3,3.0,4.4,318.0,0.00,-4.0,5.5,"00:00:32",1
"17/12/13","00:20",0.0,1.4,67.3,1013.0,281.4,2.5,4.0,315.0,0.00,-4.0,5.3,"00:16:12",1
"17/12/13","00:30",0.0,1.3,67.7,1012.8,300.8,2.8,5.2,331.8,0.00,-4.0,5.4,"00:21:20",1
"17/12/13","00:40",0.0,1.2,68.4,1013.0,299.8,2.3,5.2,325.9,0.00,-3.9,5.4,"00:35:12",1
"17/12/13","00:50",0.0,0.9,68.7,1012.8,288.5,2.2,3.9,242.1,0.00,-4.2,5.5,"00:41:06",1
"17/12/13","01:00",0.0,0.6,71.2,1012.6,294.9,1.3,3.1,320.6,0.00,-4.0,5.2,"00:51:12",1
"17/12/13","01:10",0.0,0.7,71.1,1012.3,305.0,1.6,2.9,321.7,0.00,-3.9,5.2,"01:06:48",1
"17/12/13","01:20",0.0,0.8,71.4,1012.6,267.8,1.6,2.8,224.2,0.00,-3.7,5.3,"01:13:52",1
"17/12/13","01:30",0.0,0.6,71.5,1012.6,320.0,0.8,2.0,250.2,0.00,-3.9,5.3,"01:20:16",1
"17/12/13","01:40",0.0,0.6,72.6,1012.6,264.7,1.1,2.8,236.5,0.00,-3.7,5.1,"01:37:04",1
"17/12/13","01:50",0.0,0.2,71.8,1012.8,293.3,1.5,2.5,334.0,0.00,-4.2,5.0,"01:48:48",1
"17/12/13","02:00",0.0,-0.3,76.3,1012.8,321.2,1.0,2.4,317.1,0.00,-3.9,4.9,"01:52:08",1
"17/12/13","02:10",0.0,-0.5,78.6,1012.6,212.3,1.1,2.8,132.9,0.00,-3.7,5.0,"02:04:08",1
"17/12/13","02:20",0.0,-0.4,79.4,1012.3,355.3,0.8,2.0,6.2,0.00,-3.5,4.8,"02:17:36",1
"17/12/13","02:30",0.0,-0.7,78.4,1012.3,341.0,0.7,1.6,307.3,0.00,-3.9,5.0,"02:26:56",1
"17/12/13","02:40",0.0,-0.8,80.3,1012.1,355.8,1.1,1.9,352.4,0.00,-3.7,4.8,"02:38:00",1
"17/12/13","02:50",0.0,-0.6,80.3,1012.1,18.9,0.7,1.7,343.5,0.00,-3.5,4.8,"02:43:28",1
"17/12/13","03:00",0.0,-0.9,81.6,1012.3,247.0,0.7,1.7,353.9,0.00,-3.6,4.9,"02:52:16",1
"17/12/13","03:10",0.0,-0.9,80.6,1012.1,45.0,1.1,2.2,190.1,0.00,-3.8,4.7,"03:02:24",1
"17/12/13","03:20",0.0,-0.8,81.6,1011.9,32.1,1.0,2.0,4.4,0.00,-3.5,4.6,"03:19:28",1
"17/12/13","03:30",0.0,-1.0,81.8,1011.9,40.2,0.7,1.8,338.3,0.00,-3.7,4.7,"03:29:44",1
"17/12/13","03:40",0.0,-0.7,83.9,1011.9,289.3,1.2,2.8,302.2,0.00,-3.0,4.7,"03:37:20",1
"17/12/13","03:50",0.0,0.1,79.7,1012.1,315.1,1.7,3.9,341.2,0.00,-2.9,4.6,"03:44:08",1
"17/12/13","04:00",0.0,0.3,76.2,1012.3,354.4,1.1,2.6,325.1,0.00,-3.4,4.6,"03:51:04",1
"17/12/13","04:10",0.0,0.1,76.4,1012.6,333.4,1.1,2.5,326.7,0.00,-3.5,4.5,"04:00:02",1
"17/12/13","04:20",0.0,0.1,77.8,1012.3,317.4,1.6,3.5,336.8,0.00,-3.3,4.6,"04:19:12",1
"17/12/13","04:30",0.0,0.5,75.2,1012.6,317.9,2.6,4.3,322.7,0.00,-3.3,4.5,"04:27:44",1
"17/12/13","04:40",0.0,0.5,74.9,1012.3,309.6,2.3,3.9,310.1,0.00,-3.4,4.6,"04:30:48",1
"17/12/13","04:50",0.0,0.6,74.4,1012.8,319.0,2.6,5.0,336.3,0.00,-3.4,4.6,"04:49:28",1
"17/12/13","05:00",0.0,0.8,73.6,1012.8,294.0,2.7,5.4,318.4,0.00,-3.3,4.6,"04:57:44",1
"17/12/13","05:10",0.0,0.9,72.7,1013.0,288.5,3.1,5.4,318.3,0.00,-3.4,4.6,"05:01:06",1
"17/12/13","05:20",0.0,0.8,73.0,1012.6,295.6,2.6,4.4,308.0,0.00,-3.4,4.4,"05:12:36",1
"17/12/13","05:30",0.0,0.8,73.1,1012.8,301.8,3.6,5.7,325.4,0.00,-3.4,4.6,"05:28:30",1
"17/12/13","05:40",0.0,0.8,73.1,1013.0,318.7,4.1,6.4,311.5,0.00,-3.4,4.6,"05:37:30",1
"17/12/13","05:50",0.0,0.8,72.8,1013.0,312.9,3.9,5.6,320.9,0.00,-3.5,4.5,"05:42:12",1
"17/12/13","06:00",0.0,0.7,72.7,1013.3,300.4,2.7,4.9,306.2,0.00,-3.6,4.4,"05:51:30",1
"17/12/13","06:10",0.0,0.8,72.8,1013.3,303.2,3.1,5.0,310.1,0.00,-3.5,4.4,"06:05:58",1
"17/12/13","06:20",0.0,0.8,72.4,1013.3,310.0,3.6,5.5,331.7,0.00,-3.6,4.4,"06:15:08",1
"17/12/13","06:30",0.0,0.8,72.4,1013.5,301.0,3.2,5.0,311.3,0.00,-3.6,4.3,"06:25:38",1
"17/12/13","06:40",0.0,0.8,72.4,1013.5,292.2,3.0,5.7,280.6,0.00,-3.6,4.4,"06:36:22",1
"17/12/13","06:50",0.0,0.9,72.9,1013.3,288.3,2.7,4.2,282.7,0.00,-3.4,4.4,"06:40:18",1
"17/12/13","07:00",0.0,0.8,73.3,1013.3,308.7,3.1,5.4,333.7,0.00,-3.4,4.4,"06:58:48",1
"17/12/13","07:10",0.0,0.9,73.3,1013.5,304.7,2.7,4.8,335.5,0.00,-3.3,4.2,"07:07:42",1
"17/12/13","07:20",0.0,0.9,73.8,1013.3,309.7,3.1,5.4,321.5,0.00,-3.2,4.3,"07:11:12",1
"17/12/13","07:30",0.0,0.8,74.5,1013.3,309.9,2.6,5.4,334.2,0.00,-3.2,4.4,"07:20:24",1
"17/12/13","07:40",0.0,1.2,73.8,1013.3,316.0,2.2,4.0,324.3,0.00,-2.9,4.4,"07:31:44",1
"17/12/13","07:50",0.0,1.4,72.8,1013.5,317.4,2.3,4.0,305.5,0.00,-2.9,4.4,"07:46:08",1
"17/12/13","08:00",0.0,1.7,72.3,1013.8,291.6,2.0,3.1,331.4,0.01,-2.7,4.2,"07:56:24",1
"17/12/13","08:10",0.0,2.0,71.9,1013.8,293.0,2.1,3.6,322.9,0.03,-2.5,4.5,"08:02:24",1
"17/12/13","08:20",0.0,2.3,70.7,1014.0,312.4,2.0,3.2,312.5,0.04,-2.4,4.4,"08:10:40",1
"17/12/13","08:30",0.0,2.5,70.0,1014.2,314.6,1.0,1.3,283.7,0.06,-2.4,4.6,"08:20:36",1
"17/12/13","08:40",0.0,2.8,69.3,1014.0,316.6,1.0,1.6,187.0,0.08,-2.2,4.6,"08:30:26",1
"17/12/13","08:50",0.0,2.7,68.2,1014.2,335.2,4.6,5.0,301.1,0.11,-2.5,4.7,"08:48:44",1
"17/12/13","09:00",0.0,3.5,67.3,1014.2,313.1,2.1,3.9,334.4,0.13,-1.9,4.7,"08:56:40",1
"17/12/13","09:10",0.0,3.5,66.4,1014.9,306.6,1.1,2.0,315.0,0.16,-2.1,4.8,"09:08:24",1
"17/12/13","09:20",0.0,3.8,66.2,1015.2,304.5,1.8,3.5,343.9,0.18,-1.9,5.0,"09:11:46",1
"17/12/13","09:30",0.0,4.0,65.2,1014.9,301.2,2.0,4.4,317.1,0.23,-1.9,5.0,"09:27:32",1
"17/12/13","09:40",0.0,4.0,64.7,1014.7,306.1,2.1,4.5,316.9,0.23,-2.0,5.2,"09:37:40",1
"17/12/13","09:50",0.0,4.2,65.3,1014.7,315.1,3.1,4.9,311.9,0.22,-1.7,5.1,"09:47:04",1
"17/12/13","10:00",0.0,4.4,63.1,1014.5,311.5,3.0,5.4,337.3,0.27,-2.0,5.2,"09:54:54",1
"17/12/13","10:10",0.0,4.6,60.8,1014.5,306.7,2.7,4.4,325.1,0.24,-2.3,5.6,"10:00:58",1
"17/12/13","10:20",0.0,4.5,60.6,1014.2,273.7,1.8,4.3,249.3,0.20,-2.4,5.8,"10:11:34",1
"17/12/13","10:30",0.0,4.3,62.8,1014.5,289.6,1.8,4.0,335.4,0.12,-2.1,5.7,"10:21:52",1
"17/12/13","10:40",0.0,4.6,61.0,1014.0,270.6,2.5,4.7,231.6,0.23,-2.2,5.9,"10:36:24",1
"17/12/13","10:50",0.0,5.7,60.5,1014.0,273.3,2.5,4.9,308.3,0.27,-1.3,6.0,"10:47:08",1
"17/12/13","11:00",0.0,5.3,59.4,1013.3,261.0,2.6,6.6,243.8,0.29,-1.9,6.0,"10:55:58",1
"17/12/13","11:10",0.0,6.2,57.8,1013.8,247.1,3.2,6.6,216.9,0.46,-1.5,6.3,"11:00:08",1
"17/12/13","11:20",0.0,5.9,58.5,1013.8,284.3,3.0,5.2,336.1,0.30,-1.6,6.6,"11:19:16",1
"17/12/13","11:30",0.0,5.8,57.9,1013.3,302.2,2.8,6.2,341.7,0.34,-1.8,6.4,"11:23:44",1
"17/12/13","11:40",0.0,5.9,58.3,1013.5,302.3,3.2,5.1,339.4,0.26,-1.6,6.7,"11:33:46",1
"17/12/13","11:50",0.0,6.6,56.5,1013.3,286.1,3.0,5.0,325.9,0.44,-1.4,6.7,"11:43:54",1
"17/12/13","12:00",0.0,6.0,57.6,1013.0,314.9,3.6,6.0,350.0,0.21,-1.7,6.9,"11:53:28",1
"17/12/13","12:10",0.0,6.2,57.5,1013.0,268.2,2.3,3.7,230.6,0.22,-1.5,7.2,"12:09:10",1
"17/12/13","12:20",0.0,5.9,56.8,1012.8,313.9,3.2,5.1,339.8,0.06,-2.0,7.0,"12:15:52",1
"17/12/13","12:30",0.0,6.0,57.8,1012.3,281.6,2.5,4.0,318.9,0.10,-1.6,7.2,"12:26:48",1
"17/12/13","12:40",0.0,6.1,56.5,1012.6,289.3,2.3,3.6,301.9,0.12,-1.9,7.2,"12:34:50",1
"17/12/13","12:50",0.0,6.3,56.9,1012.3,287.4,2.5,4.3,254.3,0.10,-1.6,7.5,"12:47:30",1
"17/12/13","13:00",0.0,6.6,55.4,1012.1,271.8,2.0,5.2,322.6,0.17,-1.7,7.3,"12:51:12",1
"17/12/13","13:10",0.0,6.6,56.4,1012.3,277.5,2.0,4.3,326.1,0.12,-1.4,7.2,"13:00:32",1
"17/12/13","13:20",0.0,6.7,55.6,1011.9,263.1,2.2,4.3,242.6,0.11,-1.5,7.2,"13:18:04",1
"17/12/13","13:30",0.0,6.5,58.0,1012.1,289.0,3.1,5.8,322.3,0.08,-1.1,7.3,"13:22:26",1
"17/12/13","13:40",0.0,5.9,59.4,1012.1,323.6,4.2,7.4,334.0,0.07,-1.4,7.3,"13:37:08",1
"17/12/13","13:50",0.0,6.5,57.8,1012.1,283.3,2.7,5.2,300.8,0.21,-1.2,7.2,"13:44:24",1
"17/12/13","14:00",0.0,6.5,56.6,1012.1,299.9,2.3,4.1,343.3,0.07,-1.5,7.2,"13:53:28",1
"17/12/13","14:10",0.0,6.4,57.7,1012.3,288.7,2.8,4.5,249.4,0.06,-1.3,7.2,"14:07:04",1
"17/12/13","14:20",0.0,6.5,57.3,1012.3,278.9,2.7,4.2,309.5,0.08,-1.3,7.3,"14:18:08",1
"17/12/13","14:30",0.0,6.8,56.1,1011.9,277.4,2.5,4.2,305.0,0.09,-1.3,7.5,"14:21:12",1
"17/12/13","14:40",0.0,7.0,55.9,1011.9,298.7,2.8,5.1,322.0,0.09,-1.2,7.3,"14:32:32",1
"17/12/13","14:50",0.0,7.0,54.4,1012.1,316.7,3.1,7.7,337.3,0.10,-1.5,7.5,"14:48:40",1
"17/12/13","15:00",0.0,7.1,53.3,1012.1,291.3,3.4,4.8,251.5,0.08,-1.7,7.4,"14:58:10",1
"17/12/13","15:10",0.0,6.8,53.6,1012.3,302.5,4.7,8.0,327.4,0.07,-1.9,7.2,"15:03:14",1
"17/12/13","15:20",0.0,6.9,52.9,1012.1,299.2,3.9,9.5,339.2,0.08,-2.0,7.3,"15:14:58",1
"17/12/13","15:30",0.0,6.7,55.3,1012.6,296.0,4.1,8.9,324.1,0.06,-1.6,7.2,"15:27:04",1
"17/12/13","15:40",0.0,6.2,59.5,1012.6,297.3,4.5,8.8,322.3,0.03,-1.1,7.2,"15:36:30",1
"17/12/13","15:50",0.0,5.9,62.5,1012.6,294.3,3.7,8.1,324.5,0.02,-0.7,7.3,"15:40:24",1
"17/12/13","16:00",0.0,6.0,61.3,1012.8,319.6,4.4,7.0,324.1,0.02,-0.8,7.1,"15:54:56",1
"17/12/13","16:10",0.0,5.7,63.7,1012.8,296.9,3.2,5.5,322.6,0.00,-0.6,7.3,"16:00:40",1
"17/12/13","16:20",0.0,5.6,65.9,1012.8,293.5,3.1,7.3,335.6,0.00,-0.2,7.1,"16:14:14",1
"17/12/13","16:30",0.0,5.2,68.8,1013.0,324.6,3.2,7.0,332.8,0.00,0.0,7.0,"16:29:58",1
"17/12/13","16:40",0.0,4.8,71.2,1013.0,310.4,3.0,4.9,313.6,0.00,0.1,7.0,"16:38:08",1
"17/12/13","16:50",0.0,4.6,72.4,1013.3,291.8,4.0,7.3,330.2,0.00,0.1,7.0,"16:42:26",1
"17/12/13","17:00",0.0,4.4,74.0,1013.3,289.2,3.6,7.0,317.7,0.00,0.2,7.1,"16:57:16",1
"17/12/13","17:10",0.0,4.1,76.6,1013.3,290.5,3.7,7.9,318.7,0.00,0.4,6.8,"17:04:32",1
"17/12/13","17:20",0.0,3.7,79.5,1013.0,302.2,3.1,6.3,327.2,0.00,0.5,6.7,"17:16:34",1
"17/12/13","17:30",0.0,3.5,82.2,1013.0,303.8,2.5,5.1,310.9,0.00,0.8,6.7,"17:26:24",1
"17/12/13","17:40",0.0,3.5,83.1,1013.3,289.4,2.6,8.0,329.6,0.00,0.9,6.5,"17:35:04",1
"17/12/13","17:50",0.0,3.5,82.9,1013.5,298.7,2.8,5.4,301.1,0.00,0.9,6.7,"17:45:12",1
"17/12/13","18:00",0.0,3.4,83.2,1013.3,293.0,2.3,4.0,266.2,0.00,0.9,6.5,"17:56:16",1
"17/12/13","18:10",0.0,3.4,83.0,1013.3,288.2,2.2,4.5,316.4,0.00,0.8,6.6,"18:02:32",1
"17/12/13","18:20",0.0,3.4,83.2,1013.5,283.8,2.5,5.1,266.0,0.00,0.9,6.6,"18:18:16",1
"17/12/13","18:30",0.0,3.4,83.4,1013.5,268.2,2.5,4.9,235.2,0.00,0.9,6.4,"18:22:00",1
"17/12/13","18:40",0.0,3.2,84.1,1014.0,283.3,2.6,4.2,253.6,0.00,0.8,6.5,"18:32:16",1
"17/12/13","18:50",0.0,3.1,85.0,1013.8,289.0,2.8,5.1,256.4,0.00,0.9,6.5,"18:46:40",1
"17/12/13","19:00",0.0,2.9,85.9,1014.2,284.6,2.5,4.9,286.4,0.00,0.8,6.3,"18:51:36",1
"17/12/13","19:10",0.0,2.8,87.6,1014.0,290.5,2.7,4.8,329.1,0.00,1.0,6.4,"19:07:12",1
"17/12/13","19:20",0.0,2.8,88.2,1014.5,290.1,3.0,5.4,287.2,0.00,1.1,6.3,"19:10:02",1
"17/12/13","19:30",0.0,2.7,88.2,1014.2,286.8,2.7,5.4,282.9,0.00,1.0,6.1,"19:20:32",1
"17/12/13","19:40",0.0,2.7,89.0,1014.5,290.0,2.8,5.6,302.6,0.00,1.1,6.2,"19:39:56",1
"17/12/13","19:50",0.0,2.6,89.3,1014.5,287.3,2.8,4.1,319.2,0.00,1.1,6.2,"19:40:48",1
"17/12/13","20:00",0.0,2.5,89.4,1014.5,298.8,3.1,5.0,322.9,0.00,1.0,6.1,"19:57:20",1
"17/12/13","20:10",0.0,2.3,88.9,1014.7,303.7,2.8,4.7,318.4,0.00,0.7,6.2,"20:05:20",1
"17/12/13","20:20",0.0,2.4,90.0,1014.5,295.5,3.1,5.1,312.7,0.00,1.0,6.1,"20:16:16",1
"17/12/13","20:30",0.0,2.6,89.0,1014.2,284.6,3.4,5.9,322.4,0.00,1.0,6.1,"20:22:06",1
"17/12/13","20:40",0.0,2.6,88.3,1014.5,284.8,3.2,5.4,309.4,0.00,0.9,5.9,"20:38:28",1
"17/12/13","20:50",0.0,2.6,88.0,1014.5,294.5,3.4,5.9,323.6,0.00,0.9,6.1,"20:48:38",1
"17/12/13","21:00",0.0,2.5,87.8,1014.5,302.9,3.4,5.7,314.6,0.00,0.7,6.0,"20:56:56",1
"17/12/13","21:10",0.0,2.6,87.6,1014.7,301.8,3.5,5.8,317.6,0.00,0.8,5.8,"21:06:12",1
"17/12/13","21:20",0.0,2.6,86.8,1014.9,292.1,3.4,6.6,325.4,0.00,0.7,5.8,"21:14:52",1
"17/12/13","21:30",0.0,2.6,87.2,1015.2,290.0,2.7,4.5,329.9,0.00,0.7,5.9,"21:20:56",1
"17/12/13","21:40",0.0,2.7,87.1,1015.2,284.0,2.6,4.8,310.6,0.00,0.8,5.8,"21:31:04",1
"17/12/13","21:50",0.0,2.8,87.2,1015.4,295.0,3.1,7.1,317.0,0.00,0.9,5.7,"21:41:04",1
"17/12/13","22:00",0.0,2.7,87.5,1015.4,295.1,2.6,4.5,337.4,0.00,0.9,5.5,"21:59:36",1
"17/12/13","22:10",0.0,2.5,88.0,1015.6,304.0,3.1,6.2,329.9,0.00,0.8,5.6,"22:05:38",1
"17/12/13","22:20",0.0,2.3,88.7,1015.6,294.9,2.3,5.0,330.4,0.00,0.7,5.6,"22:14:08",1
"17/12/13","22:30",0.0,2.3,89.1,1015.6,305.5,2.2,3.4,319.7,0.00,0.7,5.6,"22:26:32",1
"17/12/13","22:40",0.0,2.1,89.2,1015.4,298.1,2.0,3.2,320.0,0.00,0.6,5.7,"22:30:56",1
"17/12/13","22:50",0.0,1.9,89.1,1015.4,301.4,2.0,3.5,317.3,0.00,0.3,5.6,"22:40:24",1
"17/12/13","23:00",0.0,2.1,89.7,1015.4,285.8,2.5,4.2,306.8,0.00,0.6,5.5,"22:51:36",1
"17/12/13","23:10",0.0,2.1,89.4,1015.4,284.6,2.3,4.1,299.6,0.00,0.6,5.4,"23:08:56",1
"17/12/13","23:20",0.0,2.3,89.6,1015.2,278.3,2.8,4.8,272.3,0.00,0.8,5.6,"23:11:12",1
"17/12/13","23:30",0.0,2.3,89.0,1015.4,282.9,2.6,3.9,255.6,0.00,0.7,5.5,"23:20:24",1
"17/12/13","23:40",0.0,2.1,89.3,1014.9,305.2,2.3,4.7,331.3,0.00,0.6,5.4,"23:39:52",1
"17/12/13","23:50",0.0,1.9,88.9,1015.4,304.7,2.2,4.0,323.9,0.00,0.3,5.4,"23:43:12",1
"17/12/13","24:00",0.0,2.1,89.7,1015.2,294.1,2.2,4.9,323.1,0.00,0.6,5.6,"23:59:20",1
